Back to catalog

COSMOS 1275 DEB

AlivePO
NORAD 39963·DEBRIS·🇷🇺 Russia

Launched Jun 4, 1981 from Plesetsk Cosmodrome

Loading…

Next Passes (next 24 hours)

TLE

AgingSource: Space-Track

Epoch: Sep 7, 2026, 12:00 UTC

1 39963U 81053NZ  26250.50062353  .00000809  00000-0  87948-3 0  9992
2 39963  83.0096 318.7628 0130619 231.1309 127.8133 13.68195007610442

Track COSMOS 1275 DEB in real time with AllMySat

Download on the App Store